AFR7724 LFPG-LFKF

Flight info

Callsign AFR7724
Flight time 1h 25m
Altitude 37000
Route LATRA DCT LAMUT DCT UTUVA DCT TITVA DCT NOQAS DCT OTROT DCT RETNO DCT KOLON DCT OMARD M623 VAREK
Aircraft A320/M-SDE2E3FGIJ1RWY/HB1

Departure

Time 2026-05-06 15:18
Airport Charles de Gaulle International Airport (LFPG)

Arrival

Time 2026-05-06 16:44
Airport Figari Sud-Corse Airport (LFKF)
Time Latitude Longitude Altitude Speed Heading
2026-05-06 15:08 49.00268 2.57953 354 ft 0 kts 232°
2026-05-06 15:09 49.00273 2.57963 354 ft 4 kts 232°
2026-05-06 15:09 49.00289 2.57994 357 ft 2 kts 232°
2026-05-06 15:09 49.00302 2.58021 360 ft 4 kts 241°
2026-05-06 15:10 49.00312 2.58057 358 ft 2 kts 252°
2026-05-06 15:10 49.00319 2.58093 357 ft 4 kts 257°
2026-05-06 15:10 49.00324 2.58133 354 ft 4 kts 262°
2026-05-06 15:10 49.00327 2.58174 354 ft 4 kts 267°
2026-05-06 15:11 49.00328 2.58215 354 ft 4 kts 271°
2026-05-06 15:11 49.00327 2.58256 354 ft 4 kts 263°
2026-05-06 15:11 49.00332 2.58286 354 ft 3 kts 185°
2026-05-06 15:11 49.00334 2.58287 363 ft 0 kts 174°
2026-05-06 15:14 49.00327 2.58288 354 ft 3 kts 174°
2026-05-06 15:14 49.00292 2.58293 354 ft 7 kts 174°
2026-05-06 15:15 49.00231 2.58302 354 ft 11 kts 175°
2026-05-06 15:15 49.00155 2.58311 354 ft 11 kts 176°
2026-05-06 15:15 49.00071 2.58320 360 ft 17 kts 176°
2026-05-06 15:15 49.00020 2.58452 354 ft 19 kts 85°
2026-05-06 15:16 49.00032 2.58672 358 ft 24 kts 85°
2026-05-06 15:16 49.00046 2.58935 363 ft 25 kts 85°
2026-05-06 15:16 49.00059 2.59182 354 ft 22 kts 85°
2026-05-06 15:16 49.00072 2.59437 354 ft 25 kts 85°
2026-05-06 15:17 49.00068 2.59625 357 ft 14 kts 127°
2026-05-06 15:17 48.99975 2.59652 354 ft 14 kts 175°
2026-05-06 15:17 48.99882 2.59663 359 ft 14 kts 175°
2026-05-06 15:17 48.99808 2.59648 360 ft 9 kts 236°
2026-05-06 15:18 48.99798 2.59544 360 ft 13 kts 266°
2026-05-06 15:18 48.99773 2.59075 359 ft 98 kts 265°
2026-05-06 15:18 48.99690 2.57507 425 ft 187 kts 268°
2026-05-06 15:18 48.99567 2.55404 1433 ft 208 kts 268°
2026-05-06 15:19 48.99457 2.53132 2760 ft 216 kts 268°
2026-05-06 15:19 48.99341 2.50893 4102 ft 213 kts 268°
2026-05-06 15:19 48.99208 2.48662 5365 ft 206 kts 268°
2026-05-06 15:19 48.99086 2.46487 6311 ft 214 kts 268°
2026-05-06 15:20 48.98957 2.44161 7063 ft 230 kts 267°
2026-05-06 15:20 48.98821 2.41620 7788 ft 250 kts 268°
2026-05-06 15:20 48.98677 2.38956 8948 ft 253 kts 267°
2026-05-06 15:20 48.98528 2.36302 10265 ft 250 kts 266°
2026-05-06 15:21 48.98375 2.33697 11529 ft 245 kts 266°
2026-05-06 15:21 48.98227 2.31114 12635 ft 249 kts 266°
2026-05-06 15:21 48.98083 2.28494 13788 ft 245 kts 266°
2026-05-06 15:21 48.97940 2.25843 14382 ft 266 kts 266°
2026-05-06 15:22 48.97779 2.22900 14802 ft 290 kts 266°
2026-05-06 15:22 48.97604 2.19742 15426 ft 305 kts 265°
2026-05-06 15:22 48.97421 2.16488 16278 ft 311 kts 265°
2026-05-06 15:22 48.97107 2.13180 16874 ft 327 kts 253°
2026-05-06 15:23 48.95941 2.10092 17226 ft 349 kts 226°
2026-05-06 15:23 48.93916 2.08014 17927 ft 359 kts 201°
2026-05-06 15:23 48.91434 2.07437 18654 ft 367 kts 176°
2026-05-06 15:23 48.88902 2.08133 19394 ft 372 kts 169°
2026-05-06 15:24 48.86333 2.08742 20145 ft 375 kts 174°
2026-05-06 15:24 48.83721 2.09148 20898 ft 379 kts 176°
2026-05-06 15:24 48.81114 2.09469 21638 ft 383 kts 176°
2026-05-06 15:24 48.78441 2.09797 22387 ft 387 kts 175°
2026-05-06 15:25 48.75741 2.10169 23143 ft 391 kts 175°
2026-05-06 15:25 48.73027 2.10592 23837 ft 394 kts 174°
2026-05-06 15:25 48.70292 2.11062 24451 ft 398 kts 172°
2026-05-06 15:25 48.67573 2.11985 24869 ft 402 kts 162°
2026-05-06 15:26 48.64991 2.13609 24982 ft 402 kts 153°
2026-05-06 15:26 48.62491 2.15547 25161 ft 406 kts 154°
2026-05-06 15:26 48.59962 2.17475 25817 ft 407 kts 154°
2026-05-06 15:26 48.57420 2.19390 26408 ft 410 kts 154°
2026-05-06 15:27 48.54858 2.21309 26956 ft 413 kts 154°
2026-05-06 15:27 48.52301 2.23220 27499 ft 416 kts 154°
2026-05-06 15:27 48.49696 2.25169 28027 ft 419 kts 154°
2026-05-06 15:27 48.47066 2.27136 28559 ft 422 kts 154°
2026-05-06 15:28 48.44424 2.29113 29077 ft 425 kts 154°
2026-05-06 15:28 48.41770 2.31101 29574 ft 428 kts 153°
2026-05-06 15:28 48.39087 2.33107 30063 ft 431 kts 154°
2026-05-06 15:28 48.36400 2.35113 30473 ft 433 kts 154°
2026-05-06 15:29 48.33695 2.37125 30874 ft 435 kts 154°
2026-05-06 15:29 48.30965 2.39152 31256 ft 438 kts 154°
2026-05-06 15:29 48.28198 2.41098 31611 ft 440 kts 159°
2026-05-06 15:29 48.25311 2.42667 31951 ft 443 kts 161°
2026-05-06 15:30 48.22430 2.44199 32273 ft 445 kts 161°
2026-05-06 15:30 48.19501 2.45754 32574 ft 448 kts 161°
2026-05-06 15:30 48.16554 2.47314 32862 ft 450 kts 161°
2026-05-06 15:30 48.13595 2.48878 33130 ft 453 kts 161°
2026-05-06 15:31 48.10613 2.50457 33373 ft 455 kts 161°
2026-05-06 15:31 48.07624 2.52038 33596 ft 457 kts 161°
2026-05-06 15:31 48.04613 2.53583 33859 ft 458 kts 161°
2026-05-06 15:32 47.98593 2.56543 34348 ft 458 kts 162°
2026-05-06 15:32 47.95555 2.58010 34610 ft 458 kts 162°
2026-05-06 15:32 47.92518 2.59478 34874 ft 459 kts 162°
2026-05-06 15:32 47.89484 2.60951 35126 ft 459 kts 162°
2026-05-06 15:33 47.86451 2.62434 35382 ft 459 kts 162°
2026-05-06 15:33 47.83419 2.63923 35642 ft 458 kts 162°
2026-05-06 15:33 47.80385 2.65413 35890 ft 458 kts 162°
2026-05-06 15:33 47.77358 2.66896 36116 ft 458 kts 163°
2026-05-06 15:34 47.74324 2.68375 36342 ft 459 kts 163°
2026-05-06 15:34 47.71284 2.69851 36586 ft 459 kts 163°
2026-05-06 15:34 47.68290 2.71307 36791 ft 459 kts 163°
2026-05-06 15:34 47.65217 2.72802 36970 ft 459 kts 163°
2026-05-06 15:35 47.59176 2.75740 37012 ft 459 kts 163°
2026-05-06 15:35 47.53099 2.78688 37019 ft 459 kts 163°
2026-05-06 15:36 47.47021 2.81622 37009 ft 459 kts 163°
2026-05-06 15:36 47.40976 2.84533 37012 ft 459 kts 163°
2026-05-06 15:37 47.34896 2.87446 37004 ft 459 kts 163°
2026-05-06 15:37 47.28801 2.90370 37010 ft 460 kts 163°
2026-05-06 15:38 47.22711 2.93286 37007 ft 460 kts 163°
2026-05-06 15:38 47.16662 2.96175 37011 ft 460 kts 163°
2026-05-06 15:39 47.10559 2.99062 37020 ft 460 kts 164°
2026-05-06 15:39 47.04404 3.01678 37025 ft 460 kts 166°
2026-05-06 15:40 46.98219 3.04118 37024 ft 460 kts 166°
2026-05-06 15:40 46.92039 3.06596 37028 ft 460 kts 166°
2026-05-06 15:41 46.85910 3.09100 37020 ft 460 kts 166°
2026-05-06 15:41 46.79747 3.11629 37020 ft 460 kts 166°
2026-05-06 15:42 46.73582 3.14157 37009 ft 460 kts 166°
2026-05-06 15:42 46.67414 3.16679 37003 ft 459 kts 166°
2026-05-06 15:43 46.61291 3.19157 36997 ft 460 kts 166°
2026-05-06 15:43 46.55122 3.21652 36995 ft 460 kts 166°
2026-05-06 15:44 46.48950 3.24149 36998 ft 460 kts 166°
2026-05-06 15:44 46.42782 3.26634 37001 ft 460 kts 166°
2026-05-06 15:45 46.36651 3.29091 37011 ft 460 kts 166°
2026-05-06 15:45 46.30477 3.31560 37016 ft 461 kts 166°
2026-05-06 15:46 46.24289 3.34036 37023 ft 461 kts 166°
2026-05-06 15:46 46.18104 3.36513 37024 ft 461 kts 167°
2026-05-06 15:47 46.11912 3.38980 37023 ft 461 kts 167°
2026-05-06 15:47 46.05766 3.41421 37024 ft 460 kts 167°
2026-05-06 15:48 45.99587 3.43865 37022 ft 460 kts 167°
2026-05-06 15:48 45.93413 3.46313 37009 ft 459 kts 167°
2026-05-06 15:49 45.87310 3.48859 36996 ft 461 kts 161°
2026-05-06 15:49 45.84423 3.50906 36992 ft 464 kts 150°
2026-05-06 15:49 45.81712 3.53445 37001 ft 465 kts 149°
2026-05-06 15:50 45.76306 3.58545 36990 ft 465 kts 149°
2026-05-06 15:50 45.70898 3.63628 36996 ft 465 kts 149°
2026-05-06 15:51 45.66408 3.67842 36991 ft 465 kts 149°
2026-05-06 15:51 45.60120 3.73741 36994 ft 465 kts 149°
2026-05-06 15:52 45.54707 3.78804 36988 ft 465 kts 150°
2026-05-06 15:52 45.50203 3.82998 36998 ft 465 kts 150°
2026-05-06 15:53 45.44769 3.88040 37004 ft 465 kts 150°
2026-05-06 15:53 45.39350 3.93069 36996 ft 465 kts 150°
2026-05-06 15:54 45.34562 3.99318 36999 ft 474 kts 130°
2026-05-06 15:54 45.30708 4.06877 36996 ft 475 kts 129°
2026-05-06 15:55 45.26824 4.14499 37001 ft 476 kts 129°
2026-05-06 15:55 45.22929 4.22106 37004 ft 476 kts 129°
2026-05-06 15:56 45.19040 4.29657 37007 ft 477 kts 130°
2026-05-06 15:56 45.15123 4.37254 37011 ft 477 kts 130°
2026-05-06 15:57 45.11194 4.44836 37014 ft 476 kts 131°
2026-05-06 15:57 45.07038 4.52026 37012 ft 474 kts 135°
2026-05-06 15:58 45.02647 4.58963 37022 ft 473 kts 136°
2026-05-06 15:58 44.98263 4.65896 37020 ft 472 kts 135°
2026-05-06 15:59 44.93953 4.72899 37018 ft 472 kts 135°
2026-05-06 15:59 44.89665 4.79902 37015 ft 471 kts 135°
2026-05-06 16:00 44.85358 4.86894 37014 ft 471 kts 135°
2026-05-06 16:00 44.81074 4.93802 37012 ft 471 kts 136°
2026-05-06 16:01 44.76756 5.00734 37007 ft 470 kts 136°
2026-05-06 16:01 44.72434 5.07662 37010 ft 470 kts 136°
2026-05-06 16:02 44.68151 5.14520 37009 ft 470 kts 136°
2026-05-06 16:02 44.63829 5.21426 37013 ft 470 kts 136°
2026-05-06 16:03 44.59506 5.28316 37009 ft 470 kts 136°
2026-05-06 16:03 44.55183 5.35196 37014 ft 470 kts 137°
2026-05-06 16:04 44.50854 5.42063 37016 ft 469 kts 136°
2026-05-06 16:04 44.46555 5.48855 37009 ft 469 kts 137°
2026-05-06 16:05 44.42223 5.55691 37003 ft 468 kts 137°
2026-05-06 16:05 44.37930 5.62560 36996 ft 472 kts 132°
2026-05-06 16:06 44.34207 5.70187 36995 ft 475 kts 129°
2026-05-06 16:06 44.30521 5.77783 36993 ft 475 kts 130°
2026-05-06 16:07 44.26802 5.85413 36990 ft 475 kts 130°
2026-05-06 16:07 44.23085 5.93036 37005 ft 475 kts 130°
2026-05-06 16:08 44.19362 6.00631 36990 ft 475 kts 130°
2026-05-06 16:08 44.15635 6.08226 36979 ft 475 kts 130°
2026-05-06 16:09 44.11901 6.15819 36988 ft 475 kts 130°
2026-05-06 16:09 44.08192 6.23339 36976 ft 475 kts 130°
2026-05-06 16:10 44.04453 6.30919 36974 ft 475 kts 131°
2026-05-06 16:10 44.00705 6.38464 36967 ft 475 kts 131°
2026-05-06 16:11 43.96948 6.46007 36966 ft 475 kts 131°
2026-05-06 16:11 43.93191 6.53548 36950 ft 474 kts 131°
2026-05-06 16:12 43.89435 6.61074 36943 ft 474 kts 131°
2026-05-06 16:12 43.85665 6.68597 36931 ft 475 kts 131°
2026-05-06 16:13 43.81886 6.76111 36919 ft 475 kts 131°
2026-05-06 16:13 43.78106 6.83614 36911 ft 475 kts 131°
2026-05-06 16:14 43.74330 6.91110 36902 ft 475 kts 131°
2026-05-06 16:14 43.69946 6.97698 36913 ft 457 kts 150°
2026-05-06 16:15 43.64887 7.02949 36921 ft 459 kts 150°
2026-05-06 16:15 43.59779 7.08265 36925 ft 460 kts 150°
2026-05-06 16:16 43.54666 7.13613 36922 ft 461 kts 150°
2026-05-06 16:16 43.49545 7.18945 36924 ft 461 kts 150°
2026-05-06 16:17 43.44453 7.24218 36919 ft 460 kts 150°
2026-05-06 16:17 43.39333 7.29503 36917 ft 460 kts 150°
2026-05-06 16:18 43.34203 7.34789 36926 ft 460 kts 150°
2026-05-06 16:18 43.29079 7.40066 36940 ft 460 kts 150°
2026-05-06 16:19 43.23952 7.45329 36947 ft 460 kts 150°
2026-05-06 16:19 43.18826 7.50576 36961 ft 460 kts 151°
2026-05-06 16:20 43.13686 7.55822 36965 ft 460 kts 151°
2026-05-06 16:20 43.08326 7.60189 36974 ft 443 kts 166°
2026-05-06 16:21 43.02547 7.63071 36975 ft 442 kts 167°
2026-05-06 16:21 42.96763 7.65936 36994 ft 442 kts 167°
2026-05-06 16:22 42.90973 7.68803 37000 ft 441 kts 167°
2026-05-06 16:22 42.85241 7.71636 37004 ft 441 kts 167°
2026-05-06 16:23 42.79471 7.74490 37005 ft 441 kts 167°
2026-05-06 16:23 42.73698 7.77336 36406 ft 440 kts 167°
2026-05-06 16:24 42.70855 7.78742 35856 ft 431 kts 168°
2026-05-06 16:24 42.68055 7.80129 35319 ft 424 kts 168°
2026-05-06 16:24 42.65303 7.81489 34750 ft 418 kts 168°
2026-05-06 16:24 42.62585 7.82827 34190 ft 412 kts 168°
2026-05-06 16:25 42.59901 7.84145 33587 ft 407 kts 168°
2026-05-06 16:25 42.57253 7.85440 33019 ft 401 kts 168°
2026-05-06 16:25 42.54680 7.86697 32500 ft 395 kts 168°
2026-05-06 16:25 42.52108 7.87951 31976 ft 390 kts 169°
2026-05-06 16:26 42.49575 7.89182 31455 ft 385 kts 169°
2026-05-06 16:26 42.47067 7.90400 30950 ft 381 kts 169°
2026-05-06 16:26 42.44507 7.91633 30446 ft 405 kts 168°
2026-05-06 16:26 42.41759 7.92936 29890 ft 428 kts 168°
2026-05-06 16:27 42.38920 7.94296 29294 ft 434 kts 167°
2026-05-06 16:27 42.36076 7.95682 28767 ft 434 kts 167°
2026-05-06 16:27 42.33253 7.97143 28201 ft 436 kts 162°
2026-05-06 16:27 42.30616 7.99356 27615 ft 462 kts 148°
2026-05-06 16:28 42.28292 8.02464 26945 ft 475 kts 139°
2026-05-06 16:28 42.26069 8.05751 26296 ft 474 kts 139°
2026-05-06 16:28 42.23877 8.09008 25626 ft 474 kts 138°
2026-05-06 16:28 42.21667 8.12299 24925 ft 471 kts 138°
2026-05-06 16:29 42.19480 8.15557 24213 ft 466 kts 138°
2026-05-06 16:29 42.17308 8.18781 23483 ft 461 kts 138°
2026-05-06 16:29 42.15158 8.21955 22695 ft 456 kts 138°
2026-05-06 16:29 42.13024 8.25089 22015 ft 451 kts 138°
2026-05-06 16:30 42.10910 8.28187 21321 ft 446 kts 137°
2026-05-06 16:30 42.09515 8.30228 20872 ft 447 kts 137°
2026-05-06 16:30 42.06707 8.34334 19970 ft 443 kts 137°
2026-05-06 16:30 42.04630 8.37376 19304 ft 438 kts 137°
2026-05-06 16:31 42.02578 8.40381 18649 ft 434 kts 137°
2026-05-06 16:31 42.00569 8.43321 17975 ft 430 kts 137°
2026-05-06 16:31 41.98547 8.46276 17321 ft 426 kts 137°
2026-05-06 16:31 41.96542 8.49198 16712 ft 423 kts 137°
2026-05-06 16:32 41.94557 8.52088 16114 ft 420 kts 137°
2026-05-06 16:32 41.92576 8.54967 15524 ft 421 kts 137°
2026-05-06 16:32 41.90574 8.57868 14940 ft 423 kts 137°
2026-05-06 16:32 41.88581 8.60762 14354 ft 421 kts 136°
2026-05-06 16:33 41.86599 8.63642 13769 ft 418 kts 136°
2026-05-06 16:33 41.84654 8.66467 13328 ft 415 kts 136°
2026-05-06 16:33 41.82695 8.69308 13236 ft 416 kts 136°
2026-05-06 16:34 41.78761 8.74993 12918 ft 414 kts 136°
2026-05-06 16:34 41.76807 8.77812 12724 ft 413 kts 136°
2026-05-06 16:34 41.75070 8.80873 11948 ft 416 kts 121°
2026-05-06 16:34 41.74117 8.84523 11243 ft 416 kts 105°
2026-05-06 16:35 41.73714 8.88343 10525 ft 413 kts 97°
2026-05-06 16:35 41.73540 8.92159 9799 ft 409 kts 94°
2026-05-06 16:35 41.73361 8.95947 9051 ft 404 kts 96°
2026-05-06 16:35 41.73071 8.99657 8359 ft 398 kts 99°
2026-05-06 16:36 41.72661 9.03245 7665 ft 394 kts 101°
2026-05-06 16:36 41.72153 9.06824 6979 ft 389 kts 103°
2026-05-06 16:36 41.71595 9.10343 6317 ft 384 kts 103°
2026-05-06 16:36 41.71036 9.13766 5615 ft 359 kts 103°
2026-05-06 16:37 41.70536 9.16878 5128 ft 325 kts 103°
2026-05-06 16:37 41.70097 9.19682 4797 ft 295 kts 103°
2026-05-06 16:37 41.69695 9.22305 4184 ft 276 kts 102°
2026-05-06 16:37 41.69332 9.24698 4029 ft 250 kts 103°
2026-05-06 16:38 41.69009 9.26847 3975 ft 219 kts 103°
2026-05-06 16:38 41.68724 9.28753 4028 ft 208 kts 103°
2026-05-06 16:38 41.68431 9.30691 3989 ft 213 kts 103°
2026-05-06 16:38 41.67846 9.32485 3980 ft 211 kts 135°
2026-05-06 16:39 41.66645 9.33503 3981 ft 203 kts 168°
2026-05-06 16:39 41.65281 9.33478 3994 ft 195 kts 201°
2026-05-06 16:39 41.64179 9.32506 4000 ft 189 kts 230°
2026-05-06 16:39 41.63360 9.31150 4003 ft 190 kts 232°
2026-05-06 16:40 41.62529 9.29758 3993 ft 194 kts 233°
2026-05-06 16:40 41.61671 9.28344 3852 ft 196 kts 232°
2026-05-06 16:40 41.60812 9.26936 3573 ft 194 kts 232°
2026-05-06 16:40 41.59960 9.25542 3300 ft 193 kts 232°
2026-05-06 16:41 41.59107 9.24148 3006 ft 194 kts 233°
2026-05-06 16:41 41.58259 9.22761 2714 ft 192 kts 231°
2026-05-06 16:41 41.57428 9.21405 2420 ft 184 kts 233°
2026-05-06 16:41 41.56638 9.20115 2142 ft 175 kts 232°
2026-05-06 16:42 41.55897 9.18901 1876 ft 160 kts 233°
2026-05-06 16:42 41.55305 9.17731 1688 ft 147 kts 240°
2026-05-06 16:42 41.54790 9.16587 1571 ft 144 kts 239°
2026-05-06 16:42 41.54235 9.15499 1372 ft 141 kts 232°
2026-05-06 16:43 41.53577 9.14548 1223 ft 140 kts 226°
2026-05-06 16:43 41.52890 9.13619 987 ft 141 kts 230°
2026-05-06 16:43 41.52255 9.12630 697 ft 141 kts 230°
2026-05-06 16:43 41.51602 9.11689 395 ft 139 kts 231°
2026-05-06 16:44 41.50949 9.10742 137 ft 138 kts 230°
2026-05-06 16:44 41.50350 9.09872 74 ft 108 kts 227°
2026-05-06 16:44 41.50033 9.09417 66 ft 41 kts 227°
2026-05-06 16:44 41.49865 9.09175 60 ft 32 kts 227°
2026-05-06 16:45 41.49716 9.08957 56 ft 31 kts 227°
2026-05-06 16:45 41.49575 9.08754 52 ft 25 kts 227°
2026-05-06 16:45 41.49495 9.08686 50 ft 15 kts 197°
2026-05-06 16:45 41.49474 9.08648 49 ft 5 kts 324°
2026-05-06 16:46 41.49534 9.08692 50 ft 12 kts 50°
2026-05-06 16:46 41.49608 9.08803 52 ft 23 kts 46°
2026-05-06 16:46 41.49719 9.08962 52 ft 23 kts 47°
2026-05-06 16:46 41.49788 9.09062 59 ft 22 kts 47°
2026-05-06 16:47 41.49903 9.09227 61 ft 29 kts 46°
2026-05-06 16:47 41.50029 9.09409 66 ft 26 kts 47°
2026-05-06 16:47 41.50152 9.09587 65 ft 26 kts 47°
2026-05-06 16:47 41.50190 9.09703 63 ft 11 kts 133°
2026-05-06 16:48 41.50138 9.09768 66 ft 10 kts 137°
2026-05-06 16:48 41.50099 9.09812 69 ft 9 kts 145°
2026-05-06 16:48 41.50044 9.09799 71 ft 7 kts 191°
2026-05-06 16:48 41.50017 9.09816 68 ft 2 kts 143°
2026-05-06 16:49 41.50002 9.09834 71 ft 3 kts 138°
2026-05-06 16:49 41.49994 9.09844 71 ft 0 kts 137°